Tracking 22881 objects as of 20-Apr-2021
HD Live streaming from Space Station
objects crossing your sky now

STARLINK-2109

Track STARLINK-2109 now!
10-day predictions
STARLINK-2109 is classified as:


NORAD ID: 47388
Int'l Code: 2021-005AR
Perigee: 553.7 km
Apogee: 555.2 km
Inclination: 53.0 °
Period: 95.6 minutes
Semi major axis: 6925 km
RCS: Unknown
Launch date: January 20, 2021
Source: United States (US)
Launch site: AIR FORCE EASTERN TEST RANGE (AFETR)
aabbcc
Your satellite tracking list
Your tracking list is empty




NASA's NSSDC Master Catalog

Two Line Element Set (TLE):
1 47388U 21005AR  21109.58334491  .00045856  00000-0  30798-2 0  9995
2 47388  53.0453 155.2994 0001067  66.2422 146.3530 15.06371635  1755
Source of the keplerian elements: AFSPC